Weather observations for the past three days for
Gadsden, Gadsden Municipal Airport
| Date | Time (cdt) | Wind (kph) | Vis. (km) | Weather | Sky Cond. | Temperature (ºC) | Relative Humidity | Wind Chill (°C) | Heat Index (°C) | Pressure | Precipitation (cm) | ||||||
|---|---|---|---|---|---|---|---|---|---|---|---|---|---|---|---|---|---|
| Air | Dwpt | 6 hour | altimeter (cm) | sea level (mb) | 1 hr | 3 hr | 6 hr | ||||||||||
| Max. | Min. | ||||||||||||||||
| 02 | 07:56 | N 13 | 0.00 | Fair | CLR | 12.2 | 5 | 62% | 76.15 | 1015.5 | |||||||
| 02 | 06:56 | N 13 | 0.00 | Fair | CLR | 11.7 | 5 | 14.4 | 11.7 | 64% | 76.12 | 1015.2 | |||||
| 02 | 05:56 | N 6 | 0.00 | Mostly Cloudy | BKN055 | 11.7 | 4.4 | 61% | 76.07 | 1014.3 | |||||||
| 02 | 04:56 | N 7 | 0.00 | Fair | CLR | 12.2 | 4.4 | 59% | 76.1 | 1014.6 | |||||||
| 02 | 03:56 | N 13 | 0.00 | Fair | CLR | 12.8 | 5 | 59% | 76.07 | 1014.5 | |||||||
| 02 | 02:56 | N 7 | 0.00 | Fair | CLR | 13.3 | 5 | 57% | 76.07 | 1014.4 | |||||||
| 02 | 01:56 | N 9 | 0.00 | Partly Cloudy | SCT100 | 13.9 | 6.1 | 60% | 76.1 | 1014.8 | |||||||
| 02 | 00:56 | N 7 | 0.00 | Mostly Cloudy | BKN095 | 14.4 | 10 | 16.1 | 13.3 | 75% | 76.1 | 1014.8 | |||||
| 01 | 23:56 | Calm | 0.00 | A Few Clouds | FEW110 | 13.9 | 13.3 | 96% | 76.07 | 1014.3 | |||||||
| 01 | 22:56 | Calm | 0.00 | Fair | CLR | 13.9 | 13.9 | 100% | 76.07 | 1014.3 | |||||||
| 01 | 21:56 | Calm | 0.00 | Mostly Cloudy | BKN110 | 13.9 | 13.9 | 100% | 76.12 | 1015.1 | |||||||
| 01 | 20:56 | Calm | 0.00 | Partly Cloudy | SCT095 | 14.4 | 13.3 | 93% | 76.1 | 1014.9 | |||||||
| 01 | 19:56 | Calm | 0.00 | Fair | CLR | 15 | 13.3 | 90% | 76.07 | 1014.3 | |||||||
| 01 | 18:56 | W 6 | 0.00 | Fair | CLR | 16.1 | 11.7 | 19.4 | 16.1 | 75% | 76.05 | 1013.9 | |||||
| 01 | 17:56 | N 6 | 0.00 | Fair | CLR | 17.2 | 11.1 | 68% | 76.02 | 1013.7 | |||||||
| 01 | 16:56 | N 9 | 0.00 | Fair | CLR | 18.3 | 9.4 | 56% | 76 | 1013.2 | |||||||
| 01 | 15:56 | N 15 | 0.00 | Fair | CLR | 18.9 | 8.9 | 52% | 76.02 | 1013.6 | |||||||
| 01 | 14:56 | NW 11 | 0.00 | Fair | CLR | 18.9 | 7.8 | 49% | 76.12 | 1015.1 | |||||||
| 01 | 13:56 | Vrbl 6 | 0.00 | Fair | CLR | 18.9 | 7.2 | 47% | 76.12 | 1015.1 | |||||||
| 01 | 12:56 | N 9 | 0.00 | Fair | CLR | 18.9 | 8.9 | 18.9 | 10.6 | 52% | 76.15 | 1015.4 | |||||
| 01 | 11:56 | N 6 | 0.00 | Fair | CLR | 17.2 | 9.4 | 60% | 76.17 | 1016.0 | |||||||
| 01 | 10:56 | N 9 | 0.00 | A Few Clouds | FEW100 | 15 | 10 | 72% | 76.2 | 1016.1 | |||||||
| 01 | 09:56 | N 11 | 0.00 | Fair | CLR | 13.9 | 8.9 | 72% | 76.2 | 1016.2 | |||||||
| 01 | 08:56 | N 7 | 0.00 | NULL | NULL | 13.3 | 9.4 | 77% | 76.2 | 1016.3 | |||||||
| 01 | 07:56 | Calm | 0.00 | NULL | NULL | 11.7 | 10 | 89% | 76.15 | 1015.5 | |||||||
| 01 | 06:56 | N 6 | 0.00 | Fair | CLR | 10.6 | 10.6 | 13.3 | 10 | 100% | 76.12 | 1015.1 | |||||
| Date | Time (cdt) | Wind (kph) | Vis. (km) | Weather | Sky Cond. | Air | Dwpt | Max. | Min. | Relative Humidity | Wind Chill (°C) | Heat Index (°C) | altimeter (cm) | sea level (mb) | 1 hr | 3 hr | 6 hr |
| 6 hour | |||||||||||||||||
| Temperature (ºC) | Pressure | Precipitation (cm) | |||||||||||||||